User: anonymous   Login
Location: Lafig�re
(44.4503°N, 4.0357°E)
Time: 00:43:54
(UTC+00:00)
Language:

S-56A Canister/Altair - Orbit

View from above orbital plane
View from above orbital plane
View from above satellite
View from above satellite

Ground track
Ground track

The orbit data is extracted from the following two-line orbital elements,

1 00082U 61004B   21138.17464494 -.00000069  00000-0 -30863-4 0  9996
2 00082  38.8665  38.9493 1176867 259.0609  87.5742 12.26037609848897
Epoch (UTC): 18 May 2021 04:11:29
Eccentricity: 0.1176867
inclination: 38.8665°
perigee height: 631 km
apogee height: 2501 km
right ascension of ascending node: 38.9493°
argument of perigee: 259.0609°
revolutions per day: 12.26037609
mean anomaly at epoch: 87.5742°
orbit number at epoch: 84889

The dashed part of the orbit path shows where the satellite is in the earth's shadow,  

DLR